#timestamp,LO_Frequency,Hit,StdDev 
1572026415.1,286047002.9,N
1572026416.0,286047002.9,N
1572026435.8,286047006.8,N
1572026455.6,286047006.7,N
1572026475.5,286047006.4,N
1572026495.3,286047008.4,Y
1572026515.2,286047007.0,P
1572026535.9,286047007.2,N
1572026555.7,286047006.2,N
1572026575.6,286047007.1,Y
1572026595.4,286046999.8,P
1572026615.3,286046999.7,N
1572026635.1,286047002.4,N
1572026636.0,286047002.4,N
1572026655.8,286047000.1,N
1572026675.7,286047001.7,N
1572026695.5,286047001.6,N
1572026715.4,286047000.0,N
1572026735.2,286047004.2,N
1572026755.0,286047003.7,N
1572026755.9,286047003.7,N
1572026775.8,286047005.2,N
1572026795.6,286047005.6,N
1572026815.4,286047003.6,N
1572026835.3,286047003.7,N
1572026855.1,286047004.1,N
1572026875.9,286047001.3,N
1572026895.7,286047003.0,N
1572026915.5,286047005.6,N
1572026935.4,286047004.9,N
1572026955.2,286047007.2,Y
1572026975.1,286047003.6,P
1572026976.0,286047003.6,P
1572026995.8,286047004.3,P
1572027015.6,286047001.4,N
1572027035.5,286047001.9,N
1572027055.3,286047004.4,Y
1572027075.1,286047000.6,P
1572027095.9,286047000.3,N
1572027115.7,286047002.8,N
1572027135.6,286047001.8,N
1572027155.4,286047001.3,N
1572027175.2,286047003.4,Y
1572027195.1,286047004.2,P
1572027196.0,286047004.2,P
1572027215.8,286047004.0,P
1572027235.7,286047004.0,Y
1572027255.5,286046998.3,P
1572027275.3,286047000.8,N
1572027295.2,286046999.0,N
1572027315.0,286046998.8,N
1572027315.9,286046998.8,N
1572027335.7,286047000.7,N
1572027355.6,286047000.6,N
1572027375.4,286047000.6,N
1572027395.3,286046999.9,N
1572027415.1,286046999.0,N
1572027416.0,286046999.0,N
1572027435.8,286046998.9,N
1572027455.7,286046996.5,N
1572027475.5,286046998.9,N
1572027495.3,286046996.8,N
1572027515.2,286046996.8,N
1572027535.0,286046996.8,N
1572027535.9,286046996.8,N
1572027555.8,286046998.1,N
1572027575.6,286046997.1,N
1572027595.4,286046998.8,N
1572027615.3,286046997.9,N
1572027635.1,286046994.6,Y
1572027655.8,286046994.4,P
1572027675.7,286046994.1,N
1572027695.5,286046993.9,N
1572027715.4,286046996.3,N
1572027735.2,286046995.8,N
1572027755.0,286046995.4,N
1572027755.9,286046995.4,N
1572027775.8,286046995.5,Y
1572027795.6,286047000.3,P
1572027815.4,286047001.1,N
1572027835.3,286047000.2,N
1572027855.1,286047002.4,N
1572027875.9,286047002.3,N
1572027895.7,286047002.6,N
1572027915.5,286047002.5,N
1572027935.4,286047001.5,N
1572027955.2,286047001.4,N
1572027975.0,286047003.7,N
1572027976.0,286047003.7,N
1572027995.8,286047004.2,N
1572028015.6,286047001.4,N
1572028035.5,286047001.8,N
1572028055.3,286047001.8,N
1572028075.1,286047001.3,N
1572028095.9,286047001.3,N
1572028115.7,286047003.6,N
1572028135.5,286047004.3,N
1572028155.4,286047003.9,N
1572028175.2,286047004.4,N
1572028195.1,286047004.1,N
1572028196.0,286047004.1,N
1572028215.8,286047004.0,N
1572028235.6,286047003.7,N
1572028255.5,286047003.1,N
1572028275.3,286047005.8,Y
1572028295.1,286047002.8,P
1572028315.9,286047002.4,P
1572028335.7,286047002.0,P
1572028355.6,286047003.6,Y
1572028375.4,286047000.1,P
1572028395.2,286047001.0,N
1572028415.1,286047000.5,N
1572028416.0,286047000.5,N
1572028435.8,286047000.0,N
1572028455.7,286047000.6,N
1572028475.5,286047000.8,N
1572028495.3,286046998.1,N
1572028515.2,286046998.5,N
1572028535.0,286047001.2,N
1572028535.9,286047001.2,N
1572028555.7,286046999.0,N
1572028575.6,286046998.1,N
1572028595.4,286047000.5,N
1572028615.3,286047000.0,N
1572028635.1,286047002.4,N
1572028636.0,286047002.4,N
1572028655.8,286047002.3,N
1572028675.7,286047000.2,N
1572028695.5,286047000.6,N
1572028715.3,286047002.4,N
1572028735.2,286047001.8,N
1572028755.0,286047004.0,Y
1572028755.9,286047004.0,P
1572028775.8,286047001.8,N
1572028795.6,286047002.0,N
1572028815.4,286047001.9,N
1572028835.3,286047004.1,Y
1572028855.1,286047000.0,P
1572028875.8,286047001.1,N
1572028895.7,286046999.8,N
1572028915.5,286047002.5,N
1572028935.4,286046999.7,N
1572028955.2,286047002.3,N
1572028975.0,286046999.8,N
1572028975.9,286046999.8,N
1572028995.8,286047000.1,N
1572029015.6,286047001.2,N
1572029035.4,286046998.5,N
1572029055.3,286046998.5,N
1572029075.1,286047001.0,N
1572029095.9,286046998.7,N
1572029115.7,286047000.8,N
1572029135.5,286046998.1,N
1572029155.4,286046998.6,N
1572029175.2,286047000.7,N
1572029195.0,286046999.3,N
1572029195.9,286046999.3,N
1572029215.8,286046999.3,N
1572029235.6,286046998.5,N
1572029255.5,286046998.7,N
1572029275.3,286046999.0,N
1572029295.1,286046998.8,N
1572029315.9,286047000.8,N
1572029335.7,286046998.9,N
1572029355.5,286046996.6,N
1572029375.4,286046996.5,N
1572029395.2,286046996.6,N
1572029415.1,286046996.9,N
1572029416.0,286046996.9,N
1572029435.8,286046998.4,N
1572029455.6,286046998.6,N
1572029475.5,286047001.2,N
1572029495.3,286046998.5,N
1572029515.1,286047001.1,N
1572029535.9,286046998.7,N
1572029555.7,286046998.6,N
1572029575.6,286047000.2,N
1572029595.4,286047000.1,N
1572029615.2,286047000.9,N
1572029635.1,286047000.0,N
1572029636.0,286047000.0,N
1572029655.8,286047000.1,N
1572029675.6,286047000.2,N
1572029695.5,286047002.2,N
1572029715.3,286047004.3,N
1572029735.2,286047004.4,N
1572029755.9,286047002.4,N
1572029775.7,286046999.7,N
1572029795.6,286047000.7,N
1572029815.4,286047000.9,N
1572029835.2,286046998.5,N
1572029855.1,286047001.1,N
1572029856.0,286047001.1,N
1572029875.8,286047000.9,N
1572029895.7,286047001.2,N
1572029915.5,286047000.5,N
1572029935.3,286046999.8,N
1572029955.2,286047002.7,N
1572029975.0,286047002.3,N
1572029975.9,286047002.3,N
1572029995.8,286047002.2,N
